Showing default

USA 255, 40101

Orbit data source: Space-Track

USA 255, 40101 is a payload satellite owned by AFRL/RV (US) in GEO that was launched on Mon, 28 Jul 2014 UTC via a DELTA 4M+(4,2) launch vehicle from the Air Force Eastern Test Range (AFETR). Payload-class satellites include a variety of spacecraft equipped with specific instruments for various scientific and technological missions. These include communications satellites like Starlink; space stations such as the ISS; scientific satellites like the Hubble; Earth observation satellites from companies like Planet Labs, Umbra, and HawkEye 360; GPS; miniature CubeSats for education and research; and military/defense satellites.

Loading next visibility...
Identifier
40101, 2014-043C
Orbit
GEO
Country
Flag of USUS
Related business
Manufacturer
OSC
Mission
Non-operational Defense Classified
Bus & Motor
ANGELS, AOCS
Mass
70 kg wet, 70 kg dry
Launch date (UTC)
2014-07-28 (12 years ago)
Launch vehicle
DELTA 4M+(4,2)
Launch site
Air Force Eastern Test Range (AFETR)
Object type
Payload
Rocket body
Debris
Shape & HBR
Box + 1 Pan, 0.3 m
Radar Cross Section
0.375 m², Medium (>0.1 m² and < 1m²)

Expand to show TLE details & history
Last TLE update: 2 days ago

TLE from 2 days ago
0 USA 255
1 40101U 14043C   26171.45292050 -.00000096  00000-0  00000+0 0  9997
2 40101   9.2468  57.2361 0013993 335.3001 326.8455  0.98725658 25337
Epoch: 2026-06-20T10:52Z
TLE epoch observation values (Epoch: 2026-06-20T10:52:12.331Z)
Latitude
-7.84043°
Longitude
-72.06953°
Altitude
36,176.925 km
Speed
3.062 km/s
True Right ascension
23h 58m 35s
True Declination
-7° 49' 58"
Sunlit
Object was in daylight at epoch
Visualization orbit readout
Latitude
Unknown
Longitude
Unknown
Altitude
Unknown
Speed
Unknown
Apparent Right ascension
Unknown
Apparent Declination
Unknown
Sunlit
N/A
Visualization observer readout
Local Sidereal Time
21:36:47
Azimuth
Unknown
Elevation
Unknown
Doppler factor
Unknown
Orbital elements
Apogee altitude
36,286.314 km
Perigee altitude
36,167.08 km
Semi-major axis
42,604.834 km
Eccentricity
0.0014
Inclination
9.2468°
RAAN
57.2361°
Arg. of periapsis
335.3001°
True anomaly
326.75768°
Mean anomaly
326.8455°
Eccentric anomaly
326.8016°
Mean motion
0.24681 °/min
Orbital period
1,458.64 mins
BSTAR
0
Loading maneuver chart data...
Computing Atmospheric mass density...
Loading historical data...
Loading historical data...
Loading historical data...
Loading historical data...
Loading historical data...
Loading historical data...
Loading historical data...
Other satellites on launch #43 in the year 2014 (2014-07-28 UTC)

Documentation

Showing up to 5 results
|